Regional Weather Roundup
Issued by NWS

Home | Current Version | Previous Version | Graphics & Text | Print | Product List | Glossary On
Versions: 1 2 3 4 5 6 7 8 9 10 11 12 13 14 15 16 17 18 19 20 21 22 23 24 25 26 27 28 29 30 31 32 33 34 35 36 37 38 39 40 41 42 43 44 45 46 47 48 49 50
000
ASUS43 KMKX 250511
RWRWI

WISCONSIN REGIONAL WEATHER ROUNDUP
NATIONAL WEATHER SERVICE MILWAUKEE/SULLIVAN WI
1200 AM CDT SUN JUN 25 2017

NOTE: "FAIR" INDICATES FEW OR NO CLOUDS BELOW 12,000 FEET WITH NO
SIGNIFICANT WEATHER AND/OR OBSTRUCTIONS TO VISIBILITY.

WIZ001-002-006>008-014>016-023>028-250600-
NORTHWEST WISCONSIN

CITY           SKY/WX    TMP DP  RH WIND       PRES   REMARKS
SUPERIOR ARPT  NOT AVBL
ASHLAND        CLOUDY    54  50  86 W3        29.98S
HAYWARD        MOCLDY    53  48  83 CALM      30.01S
SIREN          PTCLDY    52  46  79 W6        30.04R
CUMBERLAND     CLOUDY    50  45  81 W6        30.03S
RICE LAKE      CLOUDY    53  47  82 W5        30.05R
CHETEK         CLOUDY    53  47  82 NW5       30.03S
LADYSMITH      MOCLDY    55  49  80 W8        30.03S
EAU CLAIRE     CLEAR     52  46  80 W6        30.03S
MENOMONIE      CLEAR     54  47  78 W9        30.05S
NEW RICHMOND   CLEAR     50  45  81 W6        30.06S
OSCEOLA        CLEAR     54  47  79 W6        30.08S
$$

WIZ003>005-009-010-017-018-250600-
NORTH CENTRAL WISCONSIN

CITY           SKY/WX    TMP DP  RH WIND       PRES   REMARKS
MANITOWISH WTR CLOUDY    52  52 100 W8        29.96S
ARBOR VITAE    DRIZZLE   55  51  87 NW6       29.95S
WOODRUFF       DRIZZLE   55  51  87 NW6       29.95S
RHINELANDER    LGT RAIN  51  51 100 W6        29.97S
EAGLE RIVER    RAIN      51  51  99 W8        29.95S
LAND O LAKES   RAIN      52  51  97 NW3       29.96S
PHILLIPS       CLOUDY    52  48  87 CALM      29.98S
TOMAHAWK       NOT AVBL
MEDFORD        PTCLDY    49  47  90 W6        30.00S
MERRILL        MOCLDY    51  50  97 W5        29.99S
$$

WIZ029-030-035-036-043>047-250600-
CENTRAL WISCONSIN

CITY           SKY/WX    TMP DP  RH WIND       PRES   REMARKS
WAUSAU         CLOUDY    54  47  77 W13       29.97F
MOSINEE        MOCLDY    52  46  82 W10       30.00F
MARSHFIELD     PTCLDY    50  46  86 W6        30.01S
STEVENS POINT  CLOUDY    51  47  86 W6        30.01S
WAUPACA        PTCLDY    53  51  94 SW6       30.00F
WAUTOMA        CLEAR     51  47  86 W5        30.02S
WISC RAPIDS    CLEAR     50  46  86 W6        30.03S
CAMP DOUGLAS   CLEAR     46  46  99 W5        30.03F
$$

WIZ011>013-019>022-031-037>040-048>050-250600-
NORTHEAST WISCONSIN

CITY           SKY/WX    TMP DP  RH WIND       PRES   REMARKS
ANTIGO         CLOUDY    51  48  88 W7        29.98S
SHAWANO        MOCLDY    58  47  67 W6        29.97S
OCONTO         MOCLDY    50  49  98 W3        29.96R
STURGEON BAY     N/A     53  52  96 SW6         N/A
GREEN BAY      MOCLDY    57  47  69 W10       29.97R
MANITOWOC      LGT RAIN  56  48  74 W14       29.98R
APPLETON       PTCLDY    52  43  71 SW10      29.97F
CLINTONVILLE   CLOUDY    54  45  71 W6        29.98S
OSHKOSH        MOCLDY    54  45  71 W5        30.00S
$$

WIZ032>034-041-042-053>061-250600-
SOUTHWEST WISCONSIN

CITY           SKY/WX    TMP DP  RH WIND       PRES   REMARKS
LA CROSSE      CLEAR     60  50  69 NW7       30.06S
SPARTA         CLEAR     47  47 100 CALM      30.06S
VIROQUA        CLEAR     50  49  98 W7        30.07S
BOSCOBEL       CLEAR     53  51  93 S5        30.08S
PRAIRIE DU CHI CLEAR     52  50  93 CALM      30.09S
PLATTEVILLE    CLEAR     52  52 100 W5        30.09S
$$

WIZ056-057-062-063-064-067-068-250600-
SOUTH CENTRAL WISCONSIN

CITY           SKY/WX    TMP DP  RH WIND       PRES   REMARKS
REEDSBURG      CLEAR     50  48  95 W7        30.05S
BARABOO/DELLS  CLEAR     49  46  87 W3        30.05S
LONE ROCK      CLEAR     53  50  89 W3        30.06F
MINERAL POINT  CLEAR     52  52 100 W6        30.08S
MADISON        CLEAR     53  50  89 W6        30.05R
MIDDLETON      CLEAR     52  52  99 W3        30.06S
WATERTOWN      CLEAR     52  52 100 W7        30.04R
MONROE         CLEAR     54  48  82 W10       30.07S
JANESVILLE     CLEAR     54  54 100 W7        30.06S
$$

WIZ051-052-058>065-066-070>072-250600-
SOUTHEAST WISCONSIN

CITY           SKY/WX    TMP DP  RH WIND       PRES   REMARKS
MILWAUKEE      PTCLDY    56  50  80 W10       30.02S
WAUKESHA       CLEAR     50  46  87 W12       30.04R
MILWAUKEE/TIMM CLEAR     52  45  76 W7        30.03S
RACINE         CLEAR     55  48  77 W6        30.04R
KENOSHA        CLEAR     51  48  89 SW7       30.03S
FOND DU LAC    PTCLDY    54  44  69 W8        30.01S
SHEBOYGAN      PTCLDY    55  48  77 W13       29.98R
WEST BEND      CLEAR     52  46  82 W12G17    30.01S
JUNEAU         CLEAR     50  48  92 SW7       30.04S
$$

LSZ147-162-250600-
LAKE SUPERIOR

STATION/POSITION TIME  TEMP    WIND        PRES    WAVE
                       AIR SEA DIR/SP/G            HT/PER
                 (UTC) (F)     (DEG/KT/KT) (MB)    (FT/S)
W MID LAKE BUOY  0350   44 39  290/  6/  6 1014.2S   1/ 4
DEVILS ISLAND    0400   55     310/ 14/ 16 1014.6R
SAXON HARBOR     0430   57     270/  5/ 10 1014.6S
$$

LMZ867-665-643>646-250600-
LAKE MICHIGAN

STATION/POSITION TIME  TEMP    WIND        PRES    WAVE
                       AIR SEA DIR/SP/G            HT/PER
                 (UTC) (F)     (DEG/KT/KT) (MB)    (FT/S)
CHAMBERS ISLAND  0440   55     260/  4/  6 1013.2F
S GREEN BAY BUOY 0430   59      90/  6/  8 1013.8F
N MID LAKE BUOY  0450   57 57   CALM  /  2 1014.1S   1
NORTHPORT PIER   0440   54     210/  2/  3 1013.5S
KEWAUNEE LAKESHO 0448   54     270/  7/ 12 1014.3R
SHEBOYGAN LAKESH 0500   57     270/ 14/ 19 1014.9R
PORT WASHINGTON  0440   58     260/  6/ 13 1016.6S
ATWATER BUOY     0309   60 56  240/ 12/ 16 1016.1F
MILWAUKEE LAKESH 0450   57     260/ 12/ 15   N/A
S MID LAKE BUOY  0350   62 62  300/ 14/ 17 1015.9F   3/ 4
KENOSHA   LAKESH 0500   58     250/  6/ 11 1016.6
$$

TC  - TEMPERATURE IN CELSIUS
VSB - VISIBILITY IN STATUTE MILES
WCI - WIND CHILL INDEX
HX  - HEAT INDEX





USA.gov is the U.S. government's official web portal to all federal, state and local government web resources and services.